| time (UTC) | temp F | wind direction | speed MPH | gust MPH | rain 1hr in | rain 24hr in | rain mn in | humidity % | barometer mb |
| 20260510205805 | 55 | 306 | 10.0 | 17.0 | 0.00 | 0.00 | 0.00 | 33 | 1020.7 |
| 20260510205307 | 55 | 325 | 11.0 | 17.0 | 0.00 | 0.00 | 0.00 | 33 | 1020.8 |
| 20260510204806 | 54 | 293 | 9.0 | 15.0 | 0.00 | 0.00 | 0.00 | 35 | 1020.8 |
| 20260510203806 | 53 | 42 | 8.0 | 18.0 | 0.00 | 0.00 | 0.00 | 38 | 1020.9 |
| 20260510203306 | 53 | 0 | 9.0 | 18.0 | 0.00 | 0.00 | 0.00 | 41 | 1020.9 |
| 20260510202306 | 55 | 14 | 9.0 | 24.0 | 0.00 | 0.00 | 0.00 | 39 | 1020.8 |
| 20260510201805 | 55 | 0 | 6.0 | 24.0 | 0.00 | 0.00 | 0.00 | 37 | 1020.8 |
| 20260510201307 | 55 | 286 | 4.0 | 11.0 | 0.00 | 0.00 | 0.00 | 36 | 1020.6 |
| 20260510200806 | 53 | 351 | 6.0 | 12.0 | 0.00 | 0.00 | 0.00 | 38 | 1020.9 |
| 20260510200303 | 53 | 26 | 6.0 | 16.0 | 0.00 | 0.00 | 0.00 | 41 | 1020.9 |
| 20260510195803 | 53 | 334 | 7.0 | 16.0 | 0.00 | 0.00 | 0.00 | 39 | 1020.9 |
| 20260510195306 | 54 | 25 | 7.0 | 15.0 | 0.00 | 0.00 | 0.00 | 40 | 1021.0 |
| 20260510194802 | 54 | 313 | 6.0 | 15.0 | 0.00 | 0.00 | 0.00 | 41 | 1020.9 |
| 20260510194302 | 53 | 350 | 5.0 | 15.0 | 0.00 | 0.00 | 0.00 | 40 | 1020.9 |
| 20260510193802 | 54 | 30 | 4.0 | 11.0 | 0.00 | 0.00 | 0.00 | 39 | 1020.8 |
| 20260510193303 | 53 | 169 | 6.0 | 14.0 | 0.00 | 0.00 | 0.00 | 37 | 1020.9 |
| 20260510192802 | 53 | 261 | 7.0 | 14.0 | 0.00 | 0.00 | 0.00 | 39 | 1020.9 |
| 20260510192301 | 53 | 281 | 8.0 | 13.0 | 0.00 | 0.00 | 0.00 | 39 | 1021.0 |
| 20260510191301 | 52 | 300 | 8.0 | 15.0 | 0.00 | 0.00 | 0.00 | 39 | 1020.9 |
| 20260510190801 | 52 | 335 | 7.0 | 15.0 | 0.00 | 0.00 | 0.00 | 40 | 1020.9 |
| 20260510190302 | 52 | 345 | 7.0 | 15.0 | 0.00 | 0.00 | 0.00 | 39 | 1020.9 |
| 20260510185802 | 52 | 340 | 8.0 | 15.0 | 0.00 | 0.00 | 0.00 | 39 | 1021.0 |
| 20260510185305 | 52 | 321 | 9.0 | 17.0 | 0.00 | 0.00 | 0.00 | 41 | 1021.0 |
| 20260510184801 | 52 | 342 | 9.0 | 17.0 | 0.00 | 0.00 | 0.00 | 39 | 1020.9 |
| 20260510184304 | 51 | 303 | 10.0 | 18.0 | 0.00 | 0.00 | 0.00 | 41 | 1020.9 |
| 20260510183801 | 52 | 18 | 8.0 | 18.0 | 0.00 | 0.00 | 0.00 | 40 | 1020.9 |
| 20260510183303 | 52 | 298 | 6.0 | 17.0 | 0.00 | 0.00 | 0.00 | 40 | 1020.9 |
| 20260510182801 | 52 | 300 | 6.0 | 13.0 | 0.00 | 0.00 | 0.00 | 41 | 1020.9 |
| 20260510182301 | 51 | 299 | 7.0 | 20.0 | 0.00 | 0.00 | 0.00 | 41 | 1020.9 |
| 20260510181802 | 51 | 349 | 10.0 | 20.0 | 0.00 | 0.00 | 0.00 | 41 | 1021.0 |
| 20260510181301 | 51 | 355 | 9.0 | 16.0 | 0.00 | 0.00 | 0.00 | 40 | 1021.0 |
| 20260510180808 | 51 | 320 | 8.0 | 16.0 | 0.00 | 0.00 | 0.00 | 41 | 1020.9 |
| 20260510175253 | 50 | 343 | 10.0 | 18.0 | 0.00 | 0.00 | 0.00 | 41 | 1021.0 |
| 20260510174753 | 50 | 283 | 11.0 | 18.0 | 0.00 | 0.00 | 0.00 | 41 | 1021.0 |
| 20260510174254 | 50 | 338 | 11.0 | 18.0 | 0.00 | 0.00 | 0.00 | 43 | 1021.0 |
| 20260510173753 | 50 | 310 | 12.0 | 20.0 | 0.00 | 0.00 | 0.00 | 41 | 1020.9 |
| 20260510173254 | 49 | 325 | 13.0 | 21.0 | 0.00 | 0.00 | 0.00 | 42 | 1020.9 |
| 20260510172753 | 49 | 309 | 14.0 | 24.0 | 0.00 | 0.00 | 0.00 | 43 | 1020.9 |
| 20260510172254 | 50 | 351 | 13.0 | 24.0 | 0.00 | 0.00 | 0.00 | 41 | 1020.8 |
| 20260510171753 | 50 | 333 | 12.0 | 20.0 | 0.00 | 0.00 | 0.00 | 42 | 1020.8 |
| 20260510171253 | 50 | 341 | 12.0 | 22.0 | 0.00 | 0.00 | 0.00 | 42 | 1020.8 |
| 20260510170254 | 50 | 355 | 11.0 | 21.0 | 0.00 | 0.00 | 0.00 | 43 | 1020.8 |
| 20260510165754 | 50 | 331 | 11.0 | 19.0 | 0.00 | 0.00 | 0.00 | 41 | 1020.8 |
| 20260510165255 | 50 | 313 | 11.0 | 19.0 | 0.00 | 0.00 | 0.00 | 44 | 1020.8 |
| 20260510164753 | 50 | 322 | 12.0 | 18.0 | 0.00 | 0.00 | 0.00 | 44 | 1020.7 |
| 20260510164254 | 50 | 355 | 12.0 | 21.0 | 0.00 | 0.00 | 0.00 | 44 | 1020.7 |
| 20260510163748 | 49 | 346 | 13.0 | 22.0 | 0.00 | 0.00 | 0.00 | 46 | 1020.7 |
| 20260510162742 | 49 | 355 | 11.0 | 21.0 | 0.00 | 0.00 | 0.00 | 44 | 1020.7 |
| 20260510162241 | 49 | 331 | 11.0 | 21.0 | 0.00 | 0.00 | 0.00 | 45 | 1020.6 |
| 20260510161741 | 49 | 26 | 13.0 | 22.0 | 0.00 | 0.00 | 0.00 | 45 | 1020.6 |
| 20260510161242 | 49 | 346 | 14.0 | 22.0 | 0.00 | 0.00 | 0.00 | 44 | 1020.6 |
| 20260510160741 | 49 | 350 | 11.0 | 21.0 | 0.00 | 0.00 | 0.00 | 44 | 1020.5 |
| 20260510160240 | 50 | 342 | 10.0 | 19.0 | 0.00 | 0.00 | 0.00 | 45 | 1020.5 |
| 20260510155741 | 49 | 332 | 11.0 | 19.0 | 0.00 | 0.00 | 0.00 | 44 | 1020.5 |
| 20260510154741 | 49 | 336 | 9.0 | 22.0 | 0.00 | 0.00 | 0.00 | 44 | 1020.4 |
| 20260510153740 | 49 | 264 | 10.0 | 20.0 | 0.00 | 0.00 | 0.00 | 45 | 1020.3 |
| 20260510153240 | 49 | 336 | 10.0 | 20.0 | 0.00 | 0.00 | 0.00 | 45 | 1020.3 |
| 20260510152742 | 49 | 329 | 10.0 | 19.0 | 0.00 | 0.00 | 0.00 | 45 | 1020.3 |
| 20260510152243 | 49 | 288 | 12.0 | 21.0 | 0.00 | 0.00 | 0.00 | 45 | 1020.2 |
| 20260510151742 | 48 | 325 | 13.0 | 21.0 | 0.00 | 0.00 | 0.00 | 45 | 1020.2 |
| 20260510151240 | 48 | 319 | 12.0 | 24.0 | 0.00 | 0.00 | 0.00 | 44 | 1020.2 |
| 20260510150241 | 48 | 284 | 11.0 | 20.0 | 0.00 | 0.00 | 0.00 | 46 | 1020.2 |
| 20260510145743 | 48 | 309 | 11.0 | 21.0 | 0.00 | 0.00 | 0.00 | 46 | 1020.1 |
| 20260510145242 | 47 | 286 | 13.0 | 21.0 | 0.00 | 0.00 | 0.00 | 46 | 1020.2 |
| 20260510144743 | 48 | 295 | 12.0 | 21.0 | 0.00 | 0.00 | 0.00 | 45 | 1020.2 |
| 20260510144243 | 48 | 310 | 9.0 | 21.0 | 0.00 | 0.00 | 0.00 | 46 | 1020.1 |
| 20260510142740 | 47 | 318 | 10.0 | 20.0 | 0.00 | 0.00 | 0.00 | 49 | 1020.1 |
| 20260510142236 | 47 | 313 | 10.0 | 18.0 | 0.00 | 0.00 | 0.00 | 49 | 1020.0 |
| 20260510140237 | 47 | 355 | 10.0 | 21.0 | 0.00 | 0.00 | 0.00 | 51 | 1020.1 |
| 20260510135231 | 46 | 0 | 8.0 | 18.0 | 0.00 | 0.00 | 0.00 | 51 | 1020.0 |
| 20260510134733 | 46 | 355 | 7.0 | 15.0 | 0.00 | 0.00 | 0.00 | 52 | 1020.1 |
| 20260510134232 | 46 | 308 | 8.0 | 15.0 | 0.00 | 0.00 | 0.00 | 53 | 1020.0 |
| 20260510133732 | 46 | 0 | 7.0 | 16.0 | 0.00 | 0.00 | 0.00 | 53 | 1020.0 |
| 20260510132733 | 46 | 302 | 9.0 | 17.0 | 0.00 | 0.00 | 0.00 | 54 | 1019.9 |
| 20260510132232 | 46 | 348 | 9.0 | 17.0 | 0.00 | 0.00 | 0.00 | 55 | 1019.9 |
| 20260510131731 | 45 | 332 | 9.0 | 16.0 | 0.00 | 0.00 | 0.00 | 57 | 1019.9 |
| 20260510130729 | 45 | 9 | 9.0 | 16.0 | 0.00 | 0.00 | 0.00 | 60 | 1019.8 |
| 20260510130229 | 45 | 0 | 9.0 | 16.0 | 0.00 | 0.00 | 0.00 | 62 | 1019.7 |
| 20260510125728 | 45 | 344 | 7.0 | 15.0 | 0.00 | 0.00 | 0.00 | 63 | 1019.7 |
| 20260510125229 | 45 | 313 | 6.0 | 13.0 | 0.00 | 0.00 | 0.00 | 67 | 1019.6 |
| 20260510124729 | 44 | 348 | 6.0 | 13.0 | 0.00 | 0.00 | 0.00 | 67 | 1019.5 |
| 20260510124229 | 44 | 339 | 5.0 | 11.0 | 0.00 | 0.00 | 0.00 | 67 | 1019.6 |
| 20260510123229 | 44 | 346 | 5.0 | 11.0 | 0.00 | 0.00 | 0.00 | 67 | 1019.5 |
| 20260510122730 | 44 | 348 | 4.0 | 9.0 | 0.00 | 0.00 | 0.00 | 67 | 1019.4 |
| 20260510122229 | 43 | 316 | 3.0 | 9.0 | 0.00 | 0.00 | 0.00 | 67 | 1019.4 |
| 20260510120726 | 43 | 334 | 3.0 | 6.0 | 0.00 | 0.00 | 0.00 | 66 | 1019.1 |
| 20260510120227 | 42 | 329 | 2.0 | 6.0 | 0.00 | 0.00 | 0.00 | 66 | 1018.9 |
| 20260510115726 | 42 | 330 | 1.0 | 5.0 | 0.00 | 0.00 | 0.00 | 67 | 1018.8 |
| 20260510115224 | 42 | 317 | 1.0 | 5.0 | 0.00 | 0.00 | 0.00 | 67 | 1018.7 |
| 20260510114721 | 42 | 306 | 1.0 | 5.0 | 0.00 | 0.00 | 0.00 | 66 | 1018.7 |
| 20260510114220 | 42 | 290 | 1.0 | 3.0 | 0.00 | 0.00 | 0.00 | 66 | 1018.7 |
| 20260510113718 | 42 | 298 | 1.0 | 3.0 | 0.00 | 0.00 | 0.00 | 67 | 1018.7 |
| 20260510113214 | 42 | 300 | 1.0 | 4.0 | 0.00 | 0.00 | 0.00 | 67 | 1018.6 |
| 20260510112714 | 42 | 308 | 2.0 | 4.0 | 0.00 | 0.00 | 0.00 | 67 | 1018.5 |
| 20260510111709 | 42 | 316 | 1.0 | 7.0 | 0.00 | 0.00 | 0.00 | 67 | 1018.5 |
| 20260510111208 | 42 | 309 | 1.0 | 4.0 | 0.00 | 0.00 | 0.00 | 66 | 1018.4 |
| 20260510110704 | 42 | 309 | 1.0 | 4.0 | 0.00 | 0.00 | 0.00 | 65 | 1018.4 |
| 20260510110206 | 41 | 275 | 0.0 | 2.0 | 0.00 | 0.00 | 0.00 | 66 | 1018.3 |
| 20260510105703 | 41 | 275 | 0.0 | 2.0 | 0.00 | 0.00 | 0.00 | 65 | 1018.2 |
| 20260510105202 | 41 | 275 | 0.0 | 2.0 | 0.00 | 0.00 | 0.00 | 64 | 1018.3 |
| 20260510104701 | 41 | 275 | 1.0 | 2.0 | 0.00 | 0.00 | 0.00 | 65 | 1018.1 |
| 20260510104202 | 41 | 276 | 1.0 | 2.0 | 0.00 | 0.00 | 0.00 | 65 | 1018.0 |
| 20260510103701 | 42 | 296 | 0.0 | 2.0 | 0.00 | 0.00 | 0.00 | 67 | 1017.9 |
| 20260510103202 | 42 | 304 | 0.0 | 1.0 | 0.00 | 0.00 | 0.00 | 68 | 1017.9 |
| 20260510102702 | 42 | 305 | 0.0 | 1.0 | 0.00 | 0.00 | 0.00 | 66 | 1017.7 |
| 20260510102155 | 42 | 305 | 0.0 | 2.0 | 0.00 | 0.00 | 0.00 | 64 | 1017.6 |
| 20260510101649 | 42 | 305 | 1.0 | 2.0 | 0.00 | 0.00 | 0.00 | 64 | 1017.5 |
| 20260510101143 | 42 | 306 | 1.0 | 2.0 | 0.00 | 0.00 | 0.00 | 63 | 1017.5 |
| 20260510100644 | 42 | 307 | 0.0 | 2.0 | 0.00 | 0.00 | 0.00 | 63 | 1017.5 |
| 20260510100142 | 42 | 307 | 0.0 | 2.0 | 0.00 | 0.00 | 0.00 | 63 | 1017.4 |
| 20260510095138 | 42 | 310 | 0.0 | 2.0 | 0.00 | 0.01 | 0.00 | 63 | 1017.2 |
| 20260510094636 | 42 | 311 | 0.0 | 2.0 | 0.00 | 0.01 | 0.00 | 64 | 1017.2 |
| 20260510093630 | 42 | 311 | 0.0 | 2.0 | 0.00 | 0.01 | 0.00 | 63 | 1017.1 |
| 20260510093130 | 42 | 317 | 0.0 | 2.0 | 0.00 | 0.01 | 0.00 | 65 | 1017.0 |
| 20260510092630 | 42 | 318 | 1.0 | 3.0 | 0.00 | 0.01 | 0.00 | 64 | 1017.0 |
| 20260510091630 | 42 | 319 | 1.0 | 3.0 | 0.00 | 0.01 | 0.00 | 65 | 1017.0 |
| 20260510091131 | 42 | 321 | 1.0 | 3.0 | 0.00 | 0.01 | 0.00 | 65 | 1016.9 |
| 20260510090631 | 42 | 317 | 1.0 | 3.0 | 0.00 | 0.01 | 0.00 | 65 | 1016.9 |
| 20260510090131 | 42 | 321 | 1.0 | 3.0 | 0.00 | 0.01 | 0.00 | 65 | 1016.7 |
| 20260510085631 | 42 | 320 | 1.0 | 3.0 | 0.00 | 0.01 | 0.00 | 65 | 1016.7 |
| 20260510085130 | 42 | 325 | 1.0 | 3.0 | 0.00 | 0.02 | 0.00 | 64 | 1016.6 |
| 20260510084631 | 42 | 325 | 1.0 | 3.0 | 0.00 | 0.03 | 0.00 | 64 | 1016.5 |
| 20260510084130 | 42 | 334 | 1.0 | 2.0 | 0.00 | 0.04 | 0.00 | 64 | 1016.5 |
| 20260510083630 | 42 | 335 | 1.0 | 2.0 | 0.00 | 0.05 | 0.00 | 65 | 1016.4 |
| 20260510082620 | 43 | 313 | 1.0 | 3.0 | 0.00 | 0.06 | 0.00 | 66 | 1016.3 |
| 20260510082116 | 43 | 307 | 2.0 | 3.0 | 0.00 | 0.07 | 0.00 | 64 | 1016.3 |
| 20260510081617 | 42 | 298 | 1.0 | 3.0 | 0.00 | 0.08 | 0.00 | 64 | 1016.2 |
| 20260510081116 | 43 | 296 | 2.0 | 4.0 | 0.00 | 0.09 | 0.00 | 63 | 1016.2 |
| 20260510080617 | 42 | 286 | 2.0 | 4.0 | 0.00 | 0.10 | 0.00 | 63 | 1016.1 |
| 20260510080118 | 42 | 293 | 1.0 | 3.0 | 0.00 | 0.12 | 0.00 | 63 | 1016.1 |
| 20260510075115 | 42 | 288 | 0.0 | 3.0 | 0.00 | 0.14 | 0.00 | 63 | 1015.9 |
| 20260510074613 | 42 | 285 | 0.0 | 3.0 | 0.00 | 0.15 | 0.00 | 63 | 1015.9 |
| 20260510073609 | 42 | 285 | 1.0 | 4.0 | 0.00 | 0.17 | 0.00 | 62 | 1015.9 |
| 20260510073106 | 42 | 284 | 1.0 | 4.0 | 0.00 | 0.18 | 0.00 | 62 | 1015.7 |
| 20260510072607 | 42 | 283 | 1.0 | 4.0 | 0.00 | 0.19 | 0.00 | 63 | 1015.7 |
| 20260510072102 | 41 | 283 | 1.0 | 4.0 | 0.00 | 0.19 | 0.00 | 64 | 1015.7 |
| 20260510071103 | 41 | 287 | 0.0 | 1.0 | 0.00 | 0.20 | 0.00 | 64 | 1015.3 |
| 20260510065603 | 41 | 288 | 0.0 | 2.0 | 0.00 | 0.20 | 0.00 | 65 | 1015.5 |
| 20260510064602 | 41 | 288 | 0.0 | 2.0 | 0.00 | 0.20 | 0.00 | 65 | 1015.4 |
| 20260510064055 | 41 | 290 | 0.0 | 1.0 | 0.00 | 0.20 | 0.00 | 66 | 1015.4 |
| 20260510063549 | 41 | 290 | 0.0 | 1.0 | 0.00 | 0.20 | 0.00 | 66 | 1015.3 |
| 20260510063043 | 42 | 290 | 0.0 | 1.0 | 0.00 | 0.20 | 0.00 | 65 | 1015.4 |
| 20260510062537 | 42 | 290 | 0.0 | 1.0 | 0.00 | 0.20 | 0.00 | 65 | 1015.4 |
| 20260510062031 | 42 | 290 | 0.0 | 1.0 | 0.00 | 0.20 | 0.00 | 65 | 1015.4 |
| 20260510061525 | 42 | 290 | 0.0 | 1.0 | 0.00 | 0.20 | 0.00 | 64 | 1015.4 |
| 20260510061019 | 42 | 290 | 0.0 | 2.0 | 0.00 | 0.20 | 0.00 | 61 | 1015.3 |
| 20260510060017 | 42 | 290 | 0.0 | 2.0 | 0.00 | 0.20 | 0.00 | 61 | 1015.4 |
| 20260510055516 | 42 | 290 | 0.0 | 1.0 | 0.00 | 0.20 | 0.00 | 62 | 1015.2 |
| 20260510055019 | 43 | 290 | 0.0 | 1.0 | 0.00 | 0.20 | 0.00 | 63 | 1015.3 |
| 20260510054517 | 43 | 290 | 0.0 | 2.0 | 0.00 | 0.20 | 0.00 | 63 | 1015.3 |
| 20260510054013 | 43 | 290 | 0.0 | 2.0 | 0.00 | 0.20 | 0.00 | 61 | 1015.2 |
| 20260510053510 | 43 | 291 | 0.0 | 2.0 | 0.00 | 0.20 | 0.00 | 60 | 1015.1 |
| 20260510053011 | 43 | 291 | 0.0 | 1.0 | 0.00 | 0.20 | 0.00 | 61 | 1015.1 |
| 20260510052510 | 43 | 291 | 0.0 | 0.0 | 0.00 | 0.20 | 0.00 | 62 | 1015.1 |
| 20260510052010 | 43 | 291 | 0.0 | 1.0 | 0.00 | 0.20 | 0.00 | 62 | 1015.1 |
| 20260510051507 | 43 | 291 | 0.0 | 1.0 | 0.00 | 0.20 | 0.00 | 62 | 1015.1 |
| 20260510051008 | 43 | 291 | 0.0 | 0.0 | 0.00 | 0.20 | 0.00 | 61 | 1015.1 |
| 20260510050507 | 43 | 291 | 0.0 | 1.0 | 0.00 | 0.20 | 0.00 | 60 | 1015.1 |
| 20260510050007 | 43 | 291 | 0.0 | 1.0 | 0.00 | 0.20 | 0.00 | 60 | 1015.1 |
| 20260510045505 | 43 | 291 | 0.0 | 0.0 | 0.00 | 0.20 | 0.20 | 61 | 1015.0 |
| 20260510045008 | 44 | 291 | 0.0 | 0.0 | 0.00 | 0.20 | 0.20 | 60 | 1015.0 |
| 20260510044506 | 44 | 291 | 0.0 | 1.0 | 0.00 | 0.20 | 0.20 | 60 | 1015.0 |
| 20260510044008 | 44 | 291 | 0.0 | 1.0 | 0.00 | 0.20 | 0.20 | 60 | 1015.0 |
| 20260510043507 | 44 | 291 | 0.0 | 0.0 | 0.00 | 0.20 | 0.20 | 59 | 1015.0 |
| 20260510043005 | 44 | 291 | 0.0 | 1.0 | 0.00 | 0.20 | 0.20 | 59 | 1014.9 |
| 20260510041504 | 45 | 291 | 0.0 | 1.0 | 0.00 | 0.20 | 0.20 | 57 | 1014.9 |
| 20260510041004 | 45 | 291 | 0.0 | 1.0 | 0.00 | 0.20 | 0.20 | 54 | 1014.9 |
| 20260510040505 | 46 | 291 | 0.0 | 2.0 | 0.00 | 0.20 | 0.20 | 54 | 1014.8 |
| 20260510040004 | 46 | 291 | 0.0 | 2.0 | 0.00 | 0.20 | 0.20 | 54 | 1014.8 |
| 20260510035505 | 47 | 292 | 0.0 | 0.0 | 0.00 | 0.20 | 0.20 | 56 | 1014.8 |
| 20260510035004 | 47 | 292 | 0.0 | 2.0 | 0.00 | 0.20 | 0.20 | 53 | 1014.8 |
| 20260510034504 | 47 | 292 | 0.0 | 2.0 | 0.00 | 0.20 | 0.20 | 50 | 1014.8 |
| 20260510034005 | 47 | 293 | 1.0 | 2.0 | 0.00 | 0.20 | 0.20 | 49 | 1014.8 |
| 20260510033504 | 47 | 293 | 1.0 | 2.0 | 0.00 | 0.20 | 0.20 | 51 | 1014.8 |
| 20260510031505 | 49 | 313 | 0.0 | 2.0 | 0.00 | 0.20 | 0.20 | 49 | 1014.7 |
| 20260510031004 | 49 | 318 | 1.0 | 3.0 | 0.00 | 0.20 | 0.20 | 49 | 1014.6 |
| 20260510030505 | 49 | 324 | 1.0 | 4.0 | 0.00 | 0.20 | 0.20 | 47 | 1014.5 |
| 20260510025503 | 50 | 305 | 2.0 | 5.0 | 0.00 | 0.20 | 0.20 | 44 | 1014.4 |
| 20260510024003 | 50 | 298 | 4.0 | 10.0 | 0.00 | 0.20 | 0.20 | 43 | 1014.3 |
| 20260510023501 | 50 | 338 | 4.0 | 9.0 | 0.00 | 0.20 | 0.20 | 43 | 1014.3 |
| 20260510023001 | 51 | 295 | 4.0 | 9.0 | 0.00 | 0.20 | 0.20 | 43 | 1014.2 |
| 20260510022003 | 51 | 355 | 5.0 | 11.0 | 0.00 | 0.20 | 0.20 | 42 | 1014.0 |
| 20260510021502 | 51 | 322 | 4.0 | 9.0 | 0.00 | 0.20 | 0.20 | 42 | 1013.9 |
| 20260510021002 | 51 | 325 | 5.0 | 11.0 | 0.00 | 0.20 | 0.20 | 42 | 1013.8 |
| 20260510020005 | 52 | 332 | 7.0 | 12.0 | 0.00 | 0.20 | 0.20 | 41 | 1013.6 |
| 20260510015501 | 52 | 319 | 7.0 | 13.0 | 0.00 | 0.20 | 0.20 | 40 | 1013.6 |
| 20260510015003 | 52 | 340 | 6.0 | 13.0 | 0.00 | 0.20 | 0.20 | 40 | 1013.5 |
| 20260510014501 | 52 | 355 | 8.0 | 15.0 | 0.00 | 0.20 | 0.20 | 39 | 1013.4 |
| 20260510013959 | 53 | 325 | 8.0 | 15.0 | 0.00 | 0.20 | 0.20 | 39 | 1013.2 |
| 20260510013455 | 53 | 347 | 8.0 | 16.0 | 0.00 | 0.20 | 0.20 | 39 | 1013.1 |
| 20260510012957 | 53 | 302 | 8.0 | 16.0 | 0.00 | 0.20 | 0.20 | 39 | 1013.1 |
| 20260510012456 | 53 | 319 | 9.0 | 18.0 | 0.00 | 0.20 | 0.20 | 39 | 1012.9 |
| 20260510011956 | 53 | 348 | 9.0 | 18.0 | 0.00 | 0.20 | 0.20 | 38 | 1012.8 |
| 20260510011502 | 53 | 331 | 8.0 | 14.0 | 0.00 | 0.20 | 0.20 | 38 | 1012.8 |
| 20260510010956 | 54 | 348 | 7.0 | 15.0 | 0.00 | 0.20 | 0.20 | 38 | 1012.5 |
| 20260510010449 | 54 | 345 | 6.0 | 15.0 | 0.00 | 0.20 | 0.20 | 38 | 1012.5 |
| 20260510005437 | 54 | 309 | 6.0 | 13.0 | 0.00 | 0.20 | 0.20 | 38 | 1012.4 |
| 20260510004937 | 54 | 318 | 7.0 | 14.0 | 0.00 | 0.20 | 0.20 | 38 | 1012.3 |
| 20260510004437 | 54 | 309 | 8.0 | 14.0 | 0.00 | 0.20 | 0.20 | 38 | 1012.3 |
| 20260510003435 | 54 | 329 | 9.0 | 17.0 | 0.00 | 0.20 | 0.20 | 36 | 1012.1 |
| 20260510002937 | 55 | 346 | 9.0 | 17.0 | 0.00 | 0.20 | 0.20 | 35 | 1012.0 |
| 20260510001937 | 55 | 18 | 10.0 | 20.0 | 0.00 | 0.20 | 0.20 | 36 | 1011.9 |
| 20260510001436 | 55 | 342 | 11.0 | 20.0 | 0.00 | 0.20 | 0.20 | 35 | 1011.8 |
| 20260510000934 | 55 | 323 | 9.0 | 17.0 | 0.00 | 0.20 | 0.20 | 35 | 1011.7 |
| 20260510000433 | 55 | 329 | 9.0 | 16.0 | 0.00 | 0.20 | 0.20 | 36 | 1011.6 |
| 20260509235934 | 55 | 302 | 9.0 | 16.0 | 0.00 | 0.20 | 0.20 | 35 | 1011.6 |
| 20260509234934 | 55 | 0 | 9.0 | 15.0 | 0.00 | 0.20 | 0.20 | 35 | 1011.5 |
| 20260509234432 | 55 | 301 | 9.0 | 17.0 | 0.00 | 0.20 | 0.20 | 35 | 1011.4 |
| 20260509233933 | 55 | 311 | 11.0 | 20.0 | 0.00 | 0.20 | 0.20 | 35 | 1011.4 |
| 20260509233432 | 55 | 333 | 12.0 | 20.0 | 0.00 | 0.20 | 0.20 | 35 | 1011.4 |
| 20260509232931 | 55 | 326 | 10.0 | 19.0 | 0.00 | 0.20 | 0.20 | 35 | 1011.2 |
| 20260509232424 | 55 | 294 | 9.0 | 20.0 | 0.00 | 0.20 | 0.20 | 36 | 1011.2 |
| 20260509231919 | 55 | 324 | 9.0 | 20.0 | 0.00 | 0.20 | 0.20 | 35 | 1011.2 |
| 20260509231412 | 55 | 296 | 9.0 | 18.0 | 0.00 | 0.20 | 0.20 | 36 | 1011.1 |
| 20260509230912 | 56 | 311 | 8.0 | 18.0 | 0.00 | 0.20 | 0.20 | 35 | 1011.2 |
| 20260509230410 | 56 | 322 | 9.0 | 17.0 | 0.00 | 0.20 | 0.20 | 35 | 1011.1 |
| 20260509225909 | 56 | 302 | 10.0 | 18.0 | 0.00 | 0.20 | 0.20 | 34 | 1011.1 |
| 20260509225409 | 56 | 301 | 10.0 | 19.0 | 0.00 | 0.20 | 0.20 | 34 | 1011.0 |
| 20260509224910 | 56 | 316 | 10.0 | 19.0 | 0.00 | 0.20 | 0.20 | 34 | 1011.1 |
| 20260509224409 | 57 | 311 | 9.0 | 16.0 | 0.00 | 0.20 | 0.20 | 34 | 1011.0 |
| 20260509223907 | 57 | 310 | 10.0 | 22.0 | 0.00 | 0.20 | 0.20 | 33 | 1010.8 |
| 20260509223407 | 57 | 313 | 13.0 | 24.0 | 0.00 | 0.20 | 0.20 | 33 | 1010.9 |
| 20260509222905 | 57 | 300 | 13.0 | 24.0 | 0.00 | 0.20 | 0.20 | 33 | 1010.9 |
| 20260509221402 | 56 | 305 | 13.0 | 22.0 | 0.00 | 0.20 | 0.20 | 34 | 1010.8 |
| 20260509220902 | 57 | 321 | 12.0 | 22.0 | 0.00 | 0.20 | 0.20 | 33 | 1010.7 |
| 20260509220401 | 57 | 314 | 13.0 | 21.0 | 0.00 | 0.20 | 0.20 | 34 | 1010.6 |
| 20260509215401 | 57 | 299 | 13.0 | 24.0 | 0.00 | 0.20 | 0.20 | 33 | 1010.6 |
| 20260509214902 | 57 | 301 | 9.0 | 23.0 | 0.00 | 0.20 | 0.20 | 32 | 1010.5 |
| 20260509214404 | 58 | 280 | 9.0 | 22.0 | 0.00 | 0.20 | 0.20 | 33 | 1010.4 |
| 20260509213856 | 57 | 276 | 13.0 | 22.0 | 0.00 | 0.20 | 0.20 | 34 | 1010.5 |
| 20260509213351 | 57 | 296 | 14.0 | 24.0 | 0.00 | 0.20 | 0.20 | 34 | 1010.4 |
| 20260509212845 | 57 | 286 | 14.0 | 24.0 | 0.00 | 0.20 | 0.20 | 33 | 1010.4 |
| 20260509211831 | 56 | 339 | 14.0 | 25.0 | 0.00 | 0.20 | 0.20 | 34 | 1010.3 |
| 20260509211333 | 56 | 335 | 15.0 | 25.0 | 0.00 | 0.20 | 0.20 | 33 | 1010.2 |